Tracking 19792 objects as of 16-Jul-2019
HD Live streaming from Space Station
objects crossing your sky now

TITAN 34B R/B

Track TITAN 34B R/B now!


NORAD ID: 17507
Int'l Code: 1987-015B
Perigee: 1,139.1 km
Apogee: 38,474.1 km
Inclination: 63.6 °
Period: 702.5 minutes
Semi major axis: 26177 km
RCS: Unknown
Launch date: February 12, 1987
Source: United States (US)
Launch site: AIR FORCE WESTERN TEST RANGE (AFWTR)

Note: This is a ROCKET BODY
aabbcc
Your satellite tracking list
Your tracking list is empty




NASA's NSSDC Master Catalog

Two Line Element Set (TLE):
1 17507U 87015B   19197.09717235  .00000235  00000-0  00000+0 0  9991
2 17507  63.6483 105.4881 7131093 266.4141  17.1781  2.04978627   704
Source of the keplerian elements: AFSPC